"datetime","temp","dp","rain_mm","uv","solar","mb","wind_mph","gust_mph","windchill","rh"
"2018-01-15 00:00:00",4.2,2.2,0.0,0.0,0,1012.0,2,3,"",87
"2018-01-15 00:01:00",4.2,2.2,0.0,0.0,0,1012.0,2,2,"",87
"2018-01-15 00:02:00",4.2,2.2,0.0,0.0,0,1012.0,2,2,"",87
"2018-01-15 00:03:00",4.3,2.3,0.0,0.0,0,1011.9,3,5,2.2,87
"2018-01-15 00:04:00",4.3,2.3,0.0,0.0,0,1011.8,3,5,2.2,87
"2018-01-15 00:05:00",4.3,2.3,0.0,0.0,0,1011.8,2,5,2.3,87
"2018-01-15 00:06:00",4.3,2.3,0.0,0.0,0,1011.8,2,4,2.8,87
"2018-01-15 00:07:00",4.3,2.3,0.0,0.0,0,1011.8,5,12,0.3,87
"2018-01-15 00:08:00",4.3,2.3,0.0,0.0,0,1011.8,2,3,"",87
"2018-01-15 00:09:00",4.3,2.3,0.0,0.0,0,1011.7,2,4,2.8,87
"2018-01-15 00:10:00",4.3,2.3,0.0,0.0,0,1011.7,4,6,1.9,87
"2018-01-15 00:11:00",4.3,2.3,0.0,0.0,0,1011.7,2,4,2.8,87
"2018-01-15 00:12:00",4.3,2.3,0.0,0.0,0,1011.7,2,4,2.8,87
"2018-01-15 00:13:00",4.3,2.3,0.0,0.0,0,1011.6,2,5,2.3,87
"2018-01-15 00:14:00",4.3,2.3,0.0,0.0,0,1011.5,2,4,2.8,87
"2018-01-15 00:15:00",4.4,2.4,0.0,0.0,0,1011.5,2,3,"",87
"2018-01-15 00:16:00",4.4,2.4,0.0,0.0,0,1011.5,2,3,"",87
"2018-01-15 00:17:00",4.4,2.4,0.0,0.0,0,1011.5,2,3,"",87
"2018-01-15 00:18:00",4.4,2.4,0.0,0.0,0,1011.5,3,4,2.9,87
"2018-01-15 00:19:00",4.4,2.4,0.0,0.0,0,1011.4,4,9,1.1,87
"2018-01-15 00:20:00",4.4,2.4,0.0,0.0,0,1011.4,2,4,2.9,87
"2018-01-15 00:21:00",4.4,2.4,0.0,0.0,0,1011.4,3,4,2.9,87
"2018-01-15 00:22:00",4.4,2.4,0.0,0.0,0,1011.4,4,8,1.4,87
"2018-01-15 00:23:00",4.4,2.4,0.0,0.0,0,1011.4,2,3,"",87
"2018-01-15 00:24:00",4.5,2.5,0.0,0.0,0,1011.4,2,4,3.0,87
"2018-01-15 00:25:00",4.5,2.5,0.0,0.0,0,1011.4,2,3,"",87
"2018-01-15 00:26:00",4.5,2.5,0.0,0.0,0,1011.4,2,5,2.5,87
"2018-01-15 00:27:00",4.6,2.6,0.0,0.0,0,1011.5,4,10,1.0,87
"2018-01-15 00:28:00",4.6,2.6,0.0,0.0,0,1011.5,2,4,3.1,87
"2018-01-15 00:29:00",4.6,2.6,0.0,0.0,0,1011.5,3,4,3.1,87
"2018-01-15 00:30:00",4.6,2.6,0.0,0.0,0,1011.5,4,8,1.6,87
"2018-01-15 00:31:00",4.6,2.6,0.0,0.0,0,1011.6,3,4,3.1,87
"2018-01-15 00:32:00",4.6,2.6,0.0,0.0,0,1011.6,4,5,2.7,87
"2018-01-15 00:33:00",4.6,2.6,0.0,0.0,0,1011.6,2,3,"",87
"2018-01-15 00:34:00",4.6,2.6,0.0,0.0,0,1011.6,2,4,3.1,87
"2018-01-15 00:35:00",4.7,2.7,0.0,0.0,0,1011.5,2,3,"",87
"2018-01-15 00:36:00",4.7,2.7,0.0,0.0,0,1011.5,3,7,2.0,87
"2018-01-15 00:37:00",4.7,2.7,0.0,0.0,0,1011.5,4,6,2.4,87
"2018-01-15 00:38:00",4.7,2.7,0.0,0.0,0,1011.5,4,8,1.7,87
"2018-01-15 00:39:00",4.7,2.7,0.0,0.0,0,1011.5,2,4,3.2,87
"2018-01-15 00:40:00",4.7,2.7,0.0,0.0,0,1011.5,2,3,"",87
"2018-01-15 00:41:00",4.8,2.8,0.0,0.0,0,1011.5,3,5,2.8,87
"2018-01-15 00:42:00",4.8,2.8,0.0,0.0,0,1011.5,3,5,2.9,87
"2018-01-15 00:43:00",4.8,2.8,0.0,0.0,0,1011.4,3,4,3.4,87
"2018-01-15 00:44:00",4.8,2.8,0.0,0.0,0,1011.4,2,3,"",87
"2018-01-15 00:45:00",4.8,2.8,0.0,0.0,0,1011.4,5,10,1.3,87
"2018-01-15 00:46:00",4.8,2.8,0.0,0.0,0,1011.3,4,7,2.2,87
"2018-01-15 00:47:00",4.8,2.8,0.0,0.0,0,1011.3,3,4,3.4,87
"2018-01-15 00:48:00",4.8,2.8,0.0,0.0,0,1011.2,3,3,"",87
"2018-01-15 00:49:00",4.8,2.8,0.0,0.0,0,1011.2,2,3,"",87
"2018-01-15 00:50:00",4.9,2.9,0.0,0.0,0,1011.1,5,8,1.9,87
"2018-01-15 00:51:00",4.9,2.9,0.0,0.0,0,1011.0,6,10,1.5,87
"2018-01-15 00:52:00",4.9,2.9,0.0,0.0,0,1011.0,3,4,3.5,87
"2018-01-15 00:53:00",4.9,2.9,0.0,0.0,0,1011.0,2,3,"",87
"2018-01-15 00:54:00",4.9,2.9,0.0,0.0,0,1010.9,3,5,3.0,87
"2018-01-15 00:55:00",4.9,2.9,0.0,0.0,0,1010.9,4,9,1.8,87
"2018-01-15 00:56:00",5.0,3.0,0.0,0.0,0,1010.8,4,6,2.7,87
"2018-01-15 00:57:00",5.0,3.0,0.0,0.0,0,1010.7,4,6,2.7,87
"2018-01-15 00:58:00",5.0,3.0,0.0,0.0,0,1010.7,3,5,3.1,87
"2018-01-15 00:59:00",5.0,2.9,0.0,0.0,0,1010.6,4,8,2.2,86
"2018-01-15 01:00:00",5.1,3.0,0.0,0.0,0,1010.6,4,9,2.0,86
"2018-01-15 01:01:00",5.1,3.0,0.0,0.0,0,1010.6,6,8,2.2,86
"2018-01-15 01:02:00",5.1,3.0,0.0,0.0,0,1010.5,3,5,3.2,86
"2018-01-15 01:03:00",5.1,3.0,0.0,0.0,0,1010.5,4,8,2.2,86
"2018-01-15 01:04:00",5.1,3.0,0.0,0.0,0,1010.4,6,11,1.5,86
"2018-01-15 01:05:00",5.2,3.2,0.0,0.0,0,1010.4,6,10,1.7,87
"2018-01-15 01:06:00",5.2,3.2,0.0,0.0,0,1010.4,3,5,3.4,87
"2018-01-15 01:07:00",5.2,3.0,0.0,0.0,0,1010.3,4,6,3.0,86
"2018-01-15 01:08:00",5.2,3.0,0.0,0.0,0,1010.3,4,7,2.6,86
"2018-01-15 01:09:00",5.2,3.0,0.0,0.0,0,1010.3,4,5,3.4,86
"2018-01-15 01:10:00",5.2,3.0,0.0,0.0,0,1010.3,3,4,3.8,86
"2018-01-15 01:11:00",5.2,3.0,0.0,0.0,0,1010.3,3,4,3.8,86
"2018-01-15 01:12:00",5.2,3.0,0.0,0.0,0,1010.3,3,6,3.0,86
"2018-01-15 01:13:00",5.3,3.1,0.0,0.0,0,1010.2,4,6,3.0,86
"2018-01-15 01:14:00",5.3,3.1,0.0,0.0,0,1010.2,2,3,"",86
"2018-01-15 01:15:00",5.3,3.1,0.0,0.0,0,1010.1,3,6,3.1,86
"2018-01-15 01:16:00",5.3,3.1,0.0,0.0,0,1010.1,2,4,3.9,86
"2018-01-15 01:17:00",5.3,3.1,0.0,0.0,0,1010.0,2,2,"",86
"2018-01-15 01:18:00",5.3,3.1,0.0,0.0,0,1010.0,2,4,3.9,86
"2018-01-15 01:19:00",5.3,3.1,0.0,0.0,0,1010.0,2,5,3.5,86
"2018-01-15 01:20:00",5.3,3.1,0.0,0.0,0,1010.0,3,4,3.9,86
"2018-01-15 01:21:00",5.3,3.1,0.0,0.0,0,1010.0,3,4,3.9,86
"2018-01-15 01:22:00",5.3,3.1,0.0,0.0,0,1010.0,2,4,3.9,86
"2018-01-15 01:23:00",5.3,3.1,0.0,0.0,0,1010.0,6,9,2.2,86
"2018-01-15 01:24:00",5.4,3.2,0.0,0.0,0,1009.9,4,6,3.2,86
"2018-01-15 01:25:00",5.4,3.2,0.0,0.0,0,1009.9,2,4,4.0,86
"2018-01-15 01:26:00",5.4,3.2,0.0,0.0,0,1009.9,3,6,3.2,86
"2018-01-15 01:27:00",5.4,3.2,0.0,0.0,0,1009.9,2,4,4.0,86
"2018-01-15 01:28:00",5.4,3.2,0.0,0.0,0,1009.8,3,5,3.6,86
"2018-01-15 01:29:00",5.4,3.2,0.0,0.0,0,1009.8,2,5,3.6,86
"2018-01-15 01:30:00",5.4,3.2,0.0,0.0,0,1009.7,2,3,"",86
"2018-01-15 01:31:00",5.4,3.2,0.0,0.0,0,1009.8,2,3,"",86
"2018-01-15 01:32:00",5.5,3.3,0.0,0.0,0,1009.8,3,4,4.0,86
"2018-01-15 01:33:00",5.5,3.3,0.0,0.0,0,1009.7,3,6,3.3,86
"2018-01-15 01:34:00",5.5,3.3,0.0,0.0,0,1009.8,6,9,2.4,86
"2018-01-15 01:35:00",5.5,3.3,0.0,0.0,0,1009.8,6,12,1.8,86
"2018-01-15 01:36:00",5.5,3.3,0.0,0.0,0,1009.7,2,3,"",86
"2018-01-15 01:37:00",5.5,3.3,0.0,0.0,0,1009.7,3,6,3.3,86
"2018-01-15 01:38:00",5.6,3.4,0.0,0.0,0,1009.7,3,4,4.3,86
"2018-01-15 01:39:00",5.6,3.4,0.0,0.0,0,1009.8,4,6,3.4,86
"2018-01-15 01:40:00",5.6,3.4,0.0,0.0,0,1009.7,4,6,3.4,86
"2018-01-15 01:41:00",5.6,3.4,0.0,0.0,0,1009.8,3,5,3.8,86
"2018-01-15 01:42:00",5.6,3.4,0.0,0.0,0,1009.7,2,4,4.3,86
"2018-01-15 01:43:00",5.6,3.4,0.0,0.0,0,1009.7,3,6,3.4,86
"2018-01-15 01:44:00",5.6,3.4,0.0,0.0,0,1009.7,3,5,3.8,86
"2018-01-15 01:45:00",5.6,3.4,0.0,0.0,0,1009.7,1,3,"",86
"2018-01-15 01:46:00",5.6,3.4,0.0,0.0,0,1009.7,2,3,"",86
"2018-01-15 01:47:00",5.6,3.4,0.0,0.0,0,1009.7,2,4,4.3,86
"2018-01-15 01:48:00",5.6,3.4,0.0,0.0,0,1009.7,2,3,"",86
"2018-01-15 01:49:00",5.6,3.4,0.0,0.0,0,1009.7,2,3,"",86
"2018-01-15 01:50:00",5.6,3.4,0.0,0.0,0,1009.8,3,4,4.3,86
"2018-01-15 01:51:00",5.6,3.4,0.0,0.0,0,1009.7,1,3,"",86
"2018-01-15 01:52:00",5.7,3.5,0.0,0.0,0,1009.7,2,3,"",86
"2018-01-15 01:53:00",5.7,3.5,0.0,0.0,0,1009.7,3,8,3.0,86
"2018-01-15 01:54:00",5.7,3.5,0.0,0.0,0,1009.6,4,6,3.6,86
"2018-01-15 01:55:00",5.7,3.5,0.0,0.0,0,1009.6,3,5,3.9,86
"2018-01-15 01:56:00",5.7,3.5,0.0,0.0,0,1009.5,2,4,4.4,86
"2018-01-15 01:57:00",5.7,3.5,0.0,0.0,0,1009.4,1,2,"",86
"2018-01-15 01:58:00",5.7,3.5,0.0,0.0,0,1009.4,2,4,4.4,86
"2018-01-15 01:59:00",5.7,3.5,0.0,0.0,0,1009.3,3,4,4.4,86
"2018-01-15 02:00:00",5.7,3.5,0.0,0.0,0,1009.3,3,7,3.2,86
"2018-01-15 02:01:00",5.7,3.5,0.0,0.0,0,1009.2,4,5,3.9,86
"2018-01-15 02:02:00",5.7,3.5,0.0,0.0,0,1009.2,5,9,2.7,86
"2018-01-15 02:03:00",5.7,3.5,0.0,0.0,0,1009.2,3,5,3.9,86
"2018-01-15 02:04:00",5.7,3.5,0.0,0.0,0,1009.2,2,4,4.4,86
"2018-01-15 02:05:00",5.8,3.6,0.0,0.0,0,1009.2,3,5,3.9,86
"2018-01-15 02:06:00",5.8,3.6,0.0,0.0,0,1009.2,2,3,"",86
"2018-01-15 02:07:00",5.8,3.6,0.0,0.0,0,1009.2,3,8,3.1,86
"2018-01-15 02:08:00",5.8,3.6,0.0,0.0,0,1009.2,6,10,2.6,86
"2018-01-15 02:09:00",5.8,3.6,0.0,0.0,0,1009.1,3,6,3.7,86
"2018-01-15 02:10:00",5.8,3.6,0.0,0.0,0,1009.1,1,2,"",86
"2018-01-15 02:11:00",5.8,3.6,0.0,0.0,0,1009.1,3,6,3.7,86
"2018-01-15 02:12:00",5.8,3.6,0.0,0.0,0,1009.1,4,8,3.1,86
"2018-01-15 02:13:00",5.8,3.6,0.0,0.0,0,1009.0,3,4,4.5,86
"2018-01-15 02:14:00",5.8,3.6,0.0,0.0,0,1009.0,1,3,"",86
"2018-01-15 02:15:00",5.8,3.6,0.0,0.0,0,1008.9,2,4,4.5,86
"2018-01-15 02:16:00",5.8,3.6,0.0,0.0,0,1009.0,3,6,3.7,86
"2018-01-15 02:17:00",5.8,3.6,0.0,0.0,0,1009.0,4,8,3.1,86
"2018-01-15 02:18:00",5.8,3.6,0.0,0.0,0,1009.0,3,5,4.1,86
"2018-01-15 02:19:00",5.9,3.7,0.0,0.0,0,1009.0,2,4,4.6,86
"2018-01-15 02:20:00",5.9,3.7,0.0,0.0,0,1008.9,2,4,4.6,86
"2018-01-15 02:21:00",5.9,3.7,0.0,0.0,0,1008.9,1,3,"",86
"2018-01-15 02:22:00",5.9,3.7,0.0,0.0,0,1008.9,3,6,3.8,86
"2018-01-15 02:23:00",5.9,3.7,0.0,0.0,0,1008.9,2,4,4.6,86
"2018-01-15 02:24:00",5.9,3.7,0.0,0.0,0,1008.9,4,7,3.5,86
"2018-01-15 02:25:00",5.9,3.7,0.0,0.0,0,1008.9,3,6,3.8,86
"2018-01-15 02:26:00",5.9,3.7,0.0,0.0,0,1008.8,5,10,2.7,86
"2018-01-15 02:27:00",5.9,3.7,0.0,0.0,0,1008.8,3,6,3.8,86
"2018-01-15 02:28:00",5.9,3.7,0.0,0.0,0,1008.8,3,5,4.2,86
"2018-01-15 02:29:00",5.9,3.7,0.0,0.0,0,1008.8,3,4,4.6,86
"2018-01-15 02:30:00",5.9,3.7,0.0,0.0,0,1008.8,3,5,4.2,86
"2018-01-15 02:31:00",5.9,3.7,0.0,0.0,0,1008.8,1,2,"",86
"2018-01-15 02:32:00",5.9,3.7,0.0,0.0,0,1008.8,1,2,"",86
"2018-01-15 02:33:00",5.9,3.7,0.0,0.0,0,1008.8,2,3,"",86
"2018-01-15 02:34:00",5.9,3.7,0.0,0.0,0,1008.9,2,3,"",86
"2018-01-15 02:35:00",5.9,3.7,0.0,0.0,0,1008.8,2,5,4.2,86
"2018-01-15 02:36:00",6.0,3.8,0.0,0.0,0,1008.8,1,2,"",86
"2018-01-15 02:37:00",5.9,3.7,0.0,0.0,0,1008.9,2,5,4.2,86
"2018-01-15 02:38:00",6.0,3.8,0.0,0.0,0,1008.8,4,12,2.3,86
"2018-01-15 02:39:00",6.0,3.8,0.0,0.0,0,1008.8,3,3,"",86
"2018-01-15 02:40:00",6.0,3.8,0.0,0.0,0,1008.8,2,3,"",86
"2018-01-15 02:41:00",6.0,3.8,0.0,0.0,0,1008.8,2,8,3.3,86
"2018-01-15 02:42:00",6.0,3.8,0.0,0.0,0,1008.7,4,8,3.3,86
"2018-01-15 02:43:00",6.0,3.8,0.0,0.0,0,1008.7,3,7,3.6,86
"2018-01-15 02:44:00",6.1,3.9,0.0,0.0,0,1008.7,3,5,4.3,86
"2018-01-15 02:45:00",6.0,3.8,0.0,0.0,0,1008.5,5,8,3.4,86
"2018-01-15 02:46:00",6.1,3.9,0.0,0.0,0,1008.5,4,5,4.4,86
"2018-01-15 02:47:00",6.1,3.9,0.0,0.0,0,1008.5,3,4,4.9,86
"2018-01-15 02:48:00",6.1,3.9,0.0,0.0,0,1008.5,4,10,2.9,86
"2018-01-15 02:49:00",6.1,3.9,0.0,0.0,0,1008.4,4,7,3.7,86
"2018-01-15 02:50:00",6.1,3.9,0.0,0.0,0,1008.4,2,3,"",86
"2018-01-15 02:51:00",6.1,3.9,0.0,0.0,0,1008.3,4,7,3.7,86
"2018-01-15 02:52:00",6.1,3.9,0.0,0.0,0,1008.3,3,6,4.0,86
"2018-01-15 02:53:00",6.1,3.9,0.0,0.0,0,1008.3,2,3,"",86
"2018-01-15 02:54:00",6.1,3.9,0.0,0.0,0,1008.2,2,4,4.9,86
"2018-01-15 02:55:00",6.1,3.9,0.0,0.0,0,1008.3,4,7,3.7,86
"2018-01-15 02:56:00",6.2,4.0,0.0,0.0,0,1008.2,2,6,4.0,86
"2018-01-15 02:57:00",6.2,4.0,0.0,0.0,0,1008.2,4,10,3.1,86
"2018-01-15 02:58:00",6.2,4.0,0.0,0.0,0,1008.2,2,3,"",86
"2018-01-15 02:59:00",6.2,4.0,0.0,0.0,0,1008.1,2,3,"",86
"2018-01-15 03:00:00",6.2,4.0,0.0,0.0,0,1008.0,2,3,"",86
"2018-01-15 03:01:00",6.2,4.0,0.0,0.0,0,1008.0,3,9,3.3,86
"2018-01-15 03:02:00",6.2,4.0,0.0,0.0,0,1008.0,6,9,3.3,86
"2018-01-15 03:03:00",6.2,4.0,0.0,0.0,0,1007.9,3,5,4.5,86
"2018-01-15 03:04:00",6.2,4.0,0.0,0.0,0,1007.9,2,4,5.0,86
"2018-01-15 03:05:00",6.2,4.0,0.0,0.0,0,1007.9,2,4,5.0,86
"2018-01-15 03:06:00",6.2,4.0,0.0,0.0,0,1007.9,3,4,5.0,86
"2018-01-15 03:07:00",6.3,4.1,0.0,0.0,0,1007.8,3,4,5.1,86
"2018-01-15 03:08:00",6.3,4.1,0.0,0.0,0,1007.8,2,4,5.1,86
"2018-01-15 03:09:00",6.3,4.1,0.0,0.0,0,1007.7,3,5,4.6,86
"2018-01-15 03:10:00",6.3,4.1,0.0,0.0,0,1007.8,3,4,5.1,86
"2018-01-15 03:11:00",6.3,4.1,0.0,0.0,0,1007.8,2,3,"",86
"2018-01-15 03:12:00",6.3,4.1,0.0,0.0,0,1007.9,2,4,5.1,86
"2018-01-15 03:13:00",6.3,4.1,0.0,0.0,0,1007.8,2,3,"",86
"2018-01-15 03:14:00",6.3,4.1,0.2,0.0,0,1007.8,3,8,3.7,86
"2018-01-15 03:15:00",6.3,4.1,0.2,0.0,0,1007.8,2,3,"",86
"2018-01-15 03:16:00",6.3,4.3,0.2,0.0,0,1007.8,3,7,4.0,87
"2018-01-15 03:17:00",6.3,4.3,0.2,0.0,0,1007.7,3,5,4.6,87
"2018-01-15 03:18:00",6.3,4.3,0.2,0.0,0,1007.7,2,3,"",87
"2018-01-15 03:19:00",6.3,4.3,0.2,0.0,0,1007.6,4,7,4.0,87
"2018-01-15 03:20:00",6.3,4.3,0.2,0.0,0,1007.5,5,10,3.2,87
"2018-01-15 03:21:00",6.3,4.3,0.2,0.0,0,1007.5,3,6,4.3,87
"2018-01-15 03:22:00",6.4,4.4,0.2,0.0,0,1007.4,5,8,3.7,87
"2018-01-15 03:23:00",6.4,4.4,0.2,0.0,0,1007.4,3,6,4.4,87
"2018-01-15 03:24:00",6.4,4.4,0.2,0.0,0,1007.3,2,3,"",87
"2018-01-15 03:25:00",6.4,4.4,0.2,0.0,0,1007.2,4,8,3.8,87
"2018-01-15 03:26:00",6.4,4.4,0.2,0.0,0,1007.1,3,4,5.2,87
"2018-01-15 03:27:00",6.4,4.4,0.2,0.0,0,1007.1,2,3,"",87
"2018-01-15 03:28:00",6.4,4.4,0.2,0.0,0,1007.1,2,3,"",87
"2018-01-15 03:29:00",6.4,4.4,0.2,0.0,0,1007.1,3,7,4.1,87
"2018-01-15 03:30:00",6.4,4.4,0.2,0.0,0,1007.1,2,4,5.2,87
"2018-01-15 03:31:00",6.4,4.4,0.2,0.0,0,1007.1,4,9,3.6,87
"2018-01-15 03:32:00",6.4,4.4,0.2,0.0,0,1007.1,4,8,3.8,87
"2018-01-15 03:33:00",6.4,4.4,0.2,0.0,0,1007.0,4,6,4.4,87
"2018-01-15 03:34:00",6.4,4.4,0.2,0.0,0,1007.0,2,4,5.2,87
"2018-01-15 03:35:00",6.4,4.4,0.2,0.0,0,1006.9,3,4,5.2,87
"2018-01-15 03:36:00",6.5,4.5,0.2,0.0,0,1006.8,5,9,3.7,87
"2018-01-15 03:37:00",6.5,4.5,0.2,0.0,0,1006.8,3,4,5.3,87
"2018-01-15 03:38:00",6.5,4.5,0.2,0.0,0,1006.8,5,8,3.9,87
"2018-01-15 03:39:00",6.5,4.5,0.2,0.0,0,1006.7,4,7,4.2,87
"2018-01-15 03:40:00",6.6,4.6,0.4,0.0,0,1006.6,3,4,5.3,87
"2018-01-15 03:41:00",6.6,4.6,0.4,0.0,0,1006.7,5,9,3.8,87
"2018-01-15 03:42:00",6.6,4.8,0.4,0.0,0,1006.6,4,9,3.8,88
"2018-01-15 03:43:00",6.6,4.8,0.4,0.0,0,1006.4,4,13,3.0,88
"2018-01-15 03:44:00",6.6,4.8,0.4,0.0,0,1006.5,3,7,4.3,88
"2018-01-15 03:45:00",6.6,4.8,0.4,0.0,0,1006.5,5,8,4.0,88
"2018-01-15 03:46:00",6.6,4.8,0.4,0.0,0,1006.5,4,7,4.3,88
"2018-01-15 03:47:00",6.7,4.9,0.4,0.0,0,1006.5,6,9,3.9,88
"2018-01-15 03:48:00",6.7,4.9,0.4,0.0,0,1006.4,5,7,4.4,88
"2018-01-15 03:49:00",6.7,4.9,0.4,0.0,0,1006.4,5,8,4.2,88
"2018-01-15 03:50:00",6.7,4.9,0.4,0.0,0,1006.3,3,5,5.1,88
"2018-01-15 03:51:00",6.7,4.9,0.4,0.0,0,1006.2,2,4,5.5,88
"2018-01-15 03:52:00",6.7,4.9,0.4,0.0,0,1006.2,4,8,4.2,88
"2018-01-15 03:53:00",6.7,4.9,0.4,0.0,0,1006.2,3,5,5.1,88
"2018-01-15 03:54:00",6.7,4.9,0.4,0.0,0,1006.1,4,10,3.7,88
"2018-01-15 03:55:00",6.8,5.0,0.4,0.0,0,1006.1,5,8,4.2,88
"2018-01-15 03:56:00",6.8,5.0,0.4,0.0,0,1006.1,4,5,5.2,88
"2018-01-15 03:57:00",6.8,5.0,0.4,0.0,0,1006.2,5,10,3.8,88
"2018-01-15 03:58:00",6.8,5.0,0.4,0.0,0,1006.1,3,5,5.2,88
"2018-01-15 03:59:00",6.8,5.0,0.4,0.0,0,1006.1,3,5,5.2,88
"2018-01-15 04:00:00",6.8,5.0,0.4,0.0,0,1006.1,1,3,"",88
"2018-01-15 04:01:00",6.8,5.0,0.4,0.0,0,1006.0,4,7,4.6,88
"2018-01-15 04:02:00",6.8,5.0,0.4,0.0,0,1006.0,4,6,4.9,88
"2018-01-15 04:03:00",6.8,5.0,0.4,0.0,0,1006.0,3,5,5.2,88
"2018-01-15 04:04:00",6.8,5.0,0.4,0.0,0,1005.9,4,6,4.9,88
"2018-01-15 04:05:00",6.9,5.0,0.4,0.0,0,1005.8,4,6,4.9,88
"2018-01-15 04:06:00",6.9,5.0,0.4,0.0,0,1005.8,3,6,5.0,88
"2018-01-15 04:07:00",6.9,5.0,0.6,0.0,0,1005.8,6,11,3.7,88
"2018-01-15 04:08:00",6.9,5.0,0.6,0.0,0,1005.7,3,6,5.0,88
"2018-01-15 04:09:00",6.9,5.0,0.6,0.0,0,1005.7,3,5,5.4,88
"2018-01-15 04:10:00",6.9,5.0,0.6,0.0,0,1005.6,3,8,4.4,88
"2018-01-15 04:11:00",6.9,5.0,0.8,0.0,0,1005.7,5,7,4.7,88
"2018-01-15 04:12:00",7.0,5.1,0.8,0.0,0,1005.6,4,5,5.4,88
"2018-01-15 04:13:00",7.0,5.1,0.8,0.0,0,1005.6,5,8,4.5,88
"2018-01-15 04:14:00",7.0,5.1,0.8,0.0,0,1005.6,2,4,5.9,88
"2018-01-15 04:15:00",7.1,5.2,0.8,0.0,0,1005.5,3,5,5.5,88
"2018-01-15 04:16:00",7.1,5.2,0.8,0.0,0,1005.5,3,4,6.0,88
"2018-01-15 04:17:00",7.1,5.2,0.8,0.0,0,1005.4,2,3,"",88
"2018-01-15 04:18:00",7.1,5.2,0.8,0.0,0,1005.5,4,8,4.7,88
"2018-01-15 04:19:00",7.1,5.2,0.8,0.0,0,1005.4,5,10,4.2,88
"2018-01-15 04:20:00",7.1,5.2,0.8,0.0,0,1005.4,5,8,4.7,88
"2018-01-15 04:21:00",7.1,5.2,0.8,0.0,0,1005.3,3,4,6.0,88
"2018-01-15 04:22:00",7.1,5.2,0.8,0.0,0,1005.3,4,5,5.6,88
"2018-01-15 04:23:00",7.1,5.2,0.8,0.0,0,1005.3,3,5,5.6,88
"2018-01-15 04:24:00",7.1,5.2,0.8,0.0,0,1005.2,4,8,4.7,88
"2018-01-15 04:25:00",7.1,5.2,0.8,0.0,0,1005.2,5,12,3.8,88
"2018-01-15 04:26:00",7.1,5.2,0.8,0.0,0,1005.1,4,5,5.6,88
"2018-01-15 04:27:00",7.1,5.2,0.8,0.0,0,1005.2,8,15,3.3,88
"2018-01-15 04:28:00",7.2,5.3,0.8,0.0,0,1005.0,5,14,3.5,88
"2018-01-15 04:29:00",7.2,5.3,0.8,0.0,0,1004.9,3,8,4.7,88
"2018-01-15 04:30:00",7.1,5.2,0.8,0.0,0,1004.8,3,4,6.1,88
"2018-01-15 04:31:00",7.2,5.3,0.8,0.0,0,1004.8,3,6,5.4,88
"2018-01-15 04:32:00",7.2,5.3,0.8,0.0,0,1004.8,4,6,5.4,88
"2018-01-15 04:33:00",7.2,5.3,0.8,0.0,0,1004.9,4,7,5.0,88
"2018-01-15 04:34:00",7.1,5.2,0.8,0.0,0,1004.8,5,9,4.4,88
"2018-01-15 04:35:00",7.2,5.3,0.8,0.0,0,1004.8,4,7,5.0,88
"2018-01-15 04:36:00",7.2,5.3,0.8,0.0,0,1004.7,3,5,5.7,88
"2018-01-15 04:37:00",7.1,5.2,1.0,0.0,0,1004.7,4,7,4.9,88
"2018-01-15 04:38:00",7.2,5.3,1.0,0.0,0,1004.7,4,9,4.5,88
"2018-01-15 04:39:00",7.1,5.2,1.0,0.0,0,1004.6,6,14,3.5,88
"2018-01-15 04:40:00",7.2,5.3,1.0,0.0,0,1004.7,6,11,4.0,88
"2018-01-15 04:41:00",7.1,5.2,1.0,0.0,0,1004.7,7,13,3.6,88
"2018-01-15 04:42:00",7.1,5.2,1.0,0.0,0,1004.7,5,7,4.9,88
"2018-01-15 04:43:00",7.1,5.2,1.0,0.0,0,1004.7,5,10,4.2,88
"2018-01-15 04:44:00",7.1,5.2,1.0,0.0,0,1004.5,4,7,4.9,88
"2018-01-15 04:45:00",7.1,5.2,1.0,0.0,0,1004.6,4,5,5.6,88
"2018-01-15 04:46:00",7.1,5.2,1.0,0.0,0,1004.6,6,10,4.2,88
"2018-01-15 04:47:00",7.1,5.2,1.0,0.0,0,1004.5,5,7,4.9,88
"2018-01-15 04:48:00",7.1,5.2,1.0,0.0,0,1004.5,6,13,3.6,88
"2018-01-15 04:49:00",7.1,5.2,1.0,0.0,0,1004.4,4,6,5.2,88
"2018-01-15 04:50:00",7.1,5.2,1.0,0.0,0,1004.4,7,14,3.5,88
"2018-01-15 04:51:00",7.1,5.2,1.0,0.0,0,1004.3,4,7,4.9,88
"2018-01-15 04:52:00",7.1,5.2,1.0,0.0,0,1004.3,3,5,5.6,88
"2018-01-15 04:53:00",7.1,5.2,1.0,0.0,0,1004.2,3,5,5.6,88
"2018-01-15 04:54:00",7.1,5.2,1.0,0.0,0,1004.3,3,6,5.2,88
"2018-01-15 04:55:00",7.1,5.2,1.0,0.0,0,1004.2,4,6,5.2,88
"2018-01-15 04:56:00",7.1,5.2,1.0,0.0,0,1004.1,5,13,3.6,88
"2018-01-15 04:57:00",7.1,5.2,1.0,0.0,0,1004.2,4,8,4.7,88
"2018-01-15 04:58:00",7.1,5.2,1.0,0.0,0,1004.1,7,12,3.8,88
"2018-01-15 04:59:00",7.1,5.2,1.0,0.0,0,1003.9,7,16,3.1,88
"2018-01-15 05:00:00",7.1,5.2,1.0,0.0,0,1004.1,4,5,5.6,88
"2018-01-15 05:01:00",7.1,5.2,1.0,0.0,0,1004.1,7,15,3.3,88
"2018-01-15 05:02:00",7.1,5.2,1.0,0.0,0,1004.0,4,6,5.2,88
"2018-01-15 05:03:00",7.1,5.2,1.0,0.0,0,1003.9,6,16,3.1,88
"2018-01-15 05:04:00",7.1,5.2,1.0,0.0,0,1003.9,6,10,4.2,88
"2018-01-15 05:05:00",7.1,5.2,1.0,0.0,0,1003.8,3,5,5.6,88
"2018-01-15 05:06:00",7.2,5.3,1.0,0.0,0,1003.9,4,9,4.5,88
"2018-01-15 05:07:00",7.2,5.3,1.0,0.0,0,1003.8,2,4,6.1,88
"2018-01-15 05:08:00",7.2,5.3,1.0,0.0,0,1003.9,4,7,5.0,88
"2018-01-15 05:09:00",7.2,5.3,1.0,0.0,0,1003.8,4,7,4.9,88
"2018-01-15 05:10:00",7.2,5.3,1.0,0.0,0,1003.8,5,10,4.3,88
"2018-01-15 05:11:00",7.2,5.3,1.0,0.0,0,1003.8,3,5,5.7,88
"2018-01-15 05:12:00",7.2,5.3,1.0,0.0,0,1003.8,2,3,"",88
"2018-01-15 05:13:00",7.2,5.3,1.0,0.0,0,1003.8,3,4,6.1,88
"2018-01-15 05:14:00",7.2,5.3,1.0,0.0,0,1003.8,4,6,5.4,88
"2018-01-15 05:15:00",7.2,5.3,1.0,0.0,0,1003.7,4,7,5.0,88
"2018-01-15 05:16:00",7.2,5.3,1.0,0.0,0,1003.7,5,7,5.0,88
"2018-01-15 05:17:00",7.2,5.3,1.0,0.0,0,1003.7,5,8,4.8,88
"2018-01-15 05:18:00",7.2,5.3,1.0,0.0,0,1003.7,5,7,5.0,88
"2018-01-15 05:19:00",7.2,5.3,1.0,0.0,0,1003.7,5,7,5.0,88
"2018-01-15 05:20:00",7.2,5.3,1.0,0.0,0,1003.7,4,9,4.5,88
"2018-01-15 05:21:00",7.2,5.3,1.0,0.0,0,1003.6,2,6,5.4,88
"2018-01-15 05:22:00",7.2,5.3,1.0,0.0,0,1003.5,3,5,5.7,88
"2018-01-15 05:23:00",7.2,5.3,1.0,0.0,0,1003.5,3,4,6.1,88
"2018-01-15 05:24:00",7.2,5.3,1.2,0.0,0,1003.5,4,7,5.0,88
"2018-01-15 05:25:00",7.2,5.3,1.2,0.0,0,1003.4,4,7,5.0,88
"2018-01-15 05:26:00",7.2,5.3,1.2,0.0,0,1003.3,2,5,5.7,88
"2018-01-15 05:27:00",7.2,5.3,1.2,0.0,0,1003.3,3,5,5.7,88
"2018-01-15 05:28:00",7.2,5.3,1.2,0.0,0,1003.2,5,12,3.9,88
"2018-01-15 05:29:00",7.2,5.3,1.2,0.0,0,1003.1,7,14,3.6,88
"2018-01-15 05:30:00",7.2,5.3,1.2,0.0,0,1003.2,4,6,5.4,88
"2018-01-15 05:31:00",7.3,5.4,1.2,0.0,0,1003.2,5,9,4.7,88
"2018-01-15 05:32:00",7.3,5.4,1.2,0.0,0,1003.1,6,12,4.0,88
"2018-01-15 05:33:00",7.3,5.4,1.2,0.0,0,1003.0,6,11,4.2,88
"2018-01-15 05:34:00",7.3,5.4,1.2,0.0,0,1003.0,4,7,5.2,88
"2018-01-15 05:35:00",7.3,5.4,1.2,0.0,0,1003.0,5,8,4.9,88
"2018-01-15 05:36:00",7.3,5.4,1.2,0.0,0,1002.9,6,13,3.9,88
"2018-01-15 05:37:00",7.3,5.4,1.2,0.0,0,1002.9,4,7,5.2,88
"2018-01-15 05:38:00",7.3,5.4,1.4,0.0,0,1002.8,6,23,2.6,88
"2018-01-15 05:39:00",7.3,5.4,1.4,0.0,0,1002.8,4,14,3.7,88
"2018-01-15 05:40:00",7.3,5.4,1.4,0.0,0,1002.9,5,11,4.2,88
"2018-01-15 05:41:00",7.3,5.4,1.4,0.0,0,1002.8,5,8,4.9,88
"2018-01-15 05:42:00",7.3,5.4,1.4,0.0,0,1002.8,5,7,5.2,88
"2018-01-15 05:43:00",7.3,5.4,1.4,0.0,0,1002.9,4,7,5.2,88
"2018-01-15 05:44:00",7.4,5.5,1.6,0.0,0,1002.9,7,10,4.4,88
"2018-01-15 05:45:00",7.4,5.5,1.6,0.0,0,1002.8,3,5,5.9,88
"2018-01-15 05:46:00",7.4,5.5,1.6,0.0,0,1002.7,5,8,5.0,88
"2018-01-15 05:47:00",7.4,5.5,1.6,0.0,0,1002.6,4,6,5.6,88
"2018-01-15 05:48:00",7.4,5.5,1.6,0.0,0,1002.6,6,11,4.4,88
"2018-01-15 05:49:00",7.4,5.5,1.6,0.0,0,1002.6,5,9,4.8,88
"2018-01-15 05:50:00",7.4,5.5,1.8,0.0,0,1002.5,7,13,4.0,88
"2018-01-15 05:51:00",7.4,5.5,1.8,0.0,0,1002.6,7,11,4.4,88
"2018-01-15 05:52:00",7.4,5.5,1.8,0.0,0,1002.5,4,9,4.8,88
"2018-01-15 05:53:00",7.4,5.5,1.8,0.0,0,1002.5,3,6,5.6,88
"2018-01-15 05:54:00",7.4,5.5,1.8,0.0,0,1002.6,4,7,5.3,88
"2018-01-15 05:55:00",7.4,5.5,1.8,0.0,0,1002.5,4,7,5.3,88
"2018-01-15 05:56:00",7.4,5.5,1.8,0.0,0,1002.4,5,8,5.0,88
"2018-01-15 05:57:00",7.5,5.6,1.8,0.0,0,1002.4,7,11,4.4,88
"2018-01-15 05:58:00",7.5,5.6,1.8,0.0,0,1002.4,4,7,5.4,88
"2018-01-15 05:59:00",7.5,5.6,1.8,0.0,0,1002.4,6,9,4.9,88
"2018-01-15 06:00:00",7.5,5.6,1.8,0.0,0,1002.3,5,15,3.8,88
"2018-01-15 06:01:00",7.5,5.6,2.0,0.0,0,1002.3,4,9,4.9,88
"2018-01-15 06:02:00",7.5,5.6,2.0,0.0,0,1002.2,4,11,4.5,88
"2018-01-15 06:03:00",7.5,5.6,2.0,0.0,0,1002.3,7,10,4.7,88
"2018-01-15 06:04:00",7.5,5.6,2.0,0.0,0,1002.2,8,13,4.1,88
"2018-01-15 06:05:00",7.5,5.6,2.0,0.0,0,1002.3,5,9,4.9,88
"2018-01-15 06:06:00",7.5,5.6,2.0,0.0,0,1002.1,8,13,4.1,88
"2018-01-15 06:07:00",7.5,5.6,2.2,0.0,0,1002.2,4,7,5.4,88
"2018-01-15 06:08:00",7.6,5.7,2.2,0.0,0,1002.1,4,10,4.8,88
"2018-01-15 06:09:00",7.6,5.7,2.2,0.0,0,1002.0,4,6,5.7,88
"2018-01-15 06:10:00",7.6,5.7,2.4,0.0,0,1002.1,4,7,5.5,88
"2018-01-15 06:11:00",7.6,5.7,2.4,0.0,0,1002.0,7,13,4.3,88
"2018-01-15 06:12:00",7.6,5.7,2.4,0.0,0,1002.0,6,12,4.4,88
"2018-01-15 06:13:00",7.6,5.7,2.4,0.0,0,1002.0,3,7,5.5,88
"2018-01-15 06:14:00",7.6,5.7,2.4,0.0,0,1001.9,3,7,5.5,88
"2018-01-15 06:15:00",7.6,5.7,2.4,0.0,0,1001.9,3,7,5.5,88
"2018-01-15 06:16:00",7.6,5.7,2.4,0.0,0,1001.9,8,12,4.4,88
"2018-01-15 06:17:00",7.6,5.7,2.6,0.0,0,1001.8,3,4,6.6,88
"2018-01-15 06:18:00",7.6,5.7,2.6,0.0,0,1001.9,4,7,5.5,88
"2018-01-15 06:19:00",7.6,5.7,2.6,0.0,0,1001.8,3,5,6.2,88
"2018-01-15 06:20:00",7.6,5.7,2.6,0.0,0,1001.7,3,6,5.8,88
"2018-01-15 06:21:00",7.6,5.7,2.6,0.0,0,1001.8,3,12,4.4,88
"2018-01-15 06:22:00",7.6,5.7,2.6,0.0,0,1001.8,6,10,4.8,88
"2018-01-15 06:23:00",7.6,5.7,2.6,0.0,0,1001.7,6,10,4.8,88
"2018-01-15 06:24:00",7.6,5.7,2.6,0.0,0,1001.7,3,7,5.5,88
"2018-01-15 06:25:00",7.6,5.7,2.8,0.0,0,1001.7,3,9,5.0,88
"2018-01-15 06:26:00",7.6,5.7,2.8,0.0,0,1001.6,3,7,5.5,88
"2018-01-15 06:27:00",7.6,5.7,2.8,0.0,0,1001.7,5,7,5.5,88
"2018-01-15 06:28:00",7.6,5.7,2.8,0.0,0,1001.6,3,7,5.5,88
"2018-01-15 06:29:00",7.6,5.7,2.8,0.0,0,1001.5,6,19,3.4,88
"2018-01-15 06:30:00",7.6,5.7,2.8,0.0,0,1001.4,4,6,5.8,88
"2018-01-15 06:31:00",7.6,5.7,2.8,0.0,0,1001.5,4,6,5.8,88
"2018-01-15 06:32:00",7.6,5.7,2.8,0.0,0,1001.4,7,18,3.5,88
"2018-01-15 06:33:00",7.6,5.7,3.0,0.0,0,1001.4,8,16,3.8,88
"2018-01-15 06:34:00",7.6,5.7,3.0,0.0,0,1001.4,4,7,5.5,88
"2018-01-15 06:35:00",7.6,5.7,3.0,0.0,0,1001.3,6,10,4.8,88
"2018-01-15 06:36:00",7.6,5.7,3.0,0.0,0,1001.3,5,11,4.6,88
"2018-01-15 06:37:00",7.6,5.7,3.0,0.0,0,1001.3,4,8,5.3,88
"2018-01-15 06:38:00",7.6,5.7,3.0,0.0,0,1001.2,6,10,4.8,88
"2018-01-15 06:39:00",7.6,5.7,3.0,0.0,0,1001.2,4,7,5.5,88
"2018-01-15 06:40:00",7.6,5.7,3.2,0.0,0,1001.2,7,19,3.4,88
"2018-01-15 06:41:00",7.6,5.7,3.2,0.0,0,1001.1,6,13,4.3,88
"2018-01-15 06:42:00",7.6,5.7,3.2,0.0,0,1001.2,6,11,4.6,88
"2018-01-15 06:43:00",7.6,5.7,3.2,0.0,0,1001.1,7,11,4.6,88
"2018-01-15 06:44:00",7.6,5.7,3.2,0.0,0,1001.1,5,9,5.0,88
"2018-01-15 06:45:00",7.6,5.7,3.2,0.0,0,1001.1,5,10,4.8,88
"2018-01-15 06:46:00",7.6,5.7,3.2,0.0,0,1001.0,5,9,5.0,88
"2018-01-15 06:47:00",7.6,5.7,3.2,0.0,0,1001.0,5,14,4.1,88
"2018-01-15 06:48:00",7.6,5.7,3.2,0.0,0,1001.0,5,12,4.4,88
"2018-01-15 06:49:00",7.6,5.7,3.4,0.0,0,1000.9,4,8,5.3,88
"2018-01-15 06:50:00",7.6,5.7,3.4,0.0,0,1000.9,4,10,4.8,88